Back to catalog

FENGYUN 1C DEB

AliveSSO
NORAD 29866·DEBRIS·🇨🇳 China

Launched May 10, 1999 from Taiyuan Satellite Launch Center

Loading…

Next Passes (next 24 hours)

TLE

FreshSource: Space-Track

Epoch: Sep 14, 2026, 11:04 UTC

1 29866U 99025FL  26257.46137659  .00001620  00000-0  23538-3 0  9992
2 29866  98.0625 242.5184 0193292  64.6205  84.6855 14.65381078 43633

Track FENGYUN 1C DEB in real time with AllMySat

Download on the App Store